Погода в Ивановке

Россия / Оренбургская область     51°43′10″N   55°11′44″E
темп.,
°C
ветер,
м/с
пор.,
м/с
влажн.,
%
обл.,
%
осадки,
мм/ч
давл.,
гПа
погр.,
м
23 апреля, пт
пт2323:00+5вюв51089100 4.6 1030701
02:00+6вюв61283100 0.2 1029376
05:00+7юв51176100 0.2 1028332
08:00+8юв61269100 0.0 1027347
11:00+11ююв71258100 0.0 1027863
14:00+10ююв81074100 0.3 10271023
17:00+11вюв6968100 1.8 10251217
20:00+10ююв51075100 0.5 1023497
24 апреля, сб
сб2423:00+8юв4890100 2.1 1022496
02:00+8вюв51085100 1.4 1019466
05:00+7в41091100 2.3 1016391
08:00+8вюв61079100 0.3 1014832
11:00+7юв6984100 0.9 1013827
14:00+8юв3581100 0.1 1013534
17:00+8зюз3789100 0.1 1014492
20:00+8зюз3690100 0.0 1015300
25 апреля, вс
вс2523:00+7юз339378 0.0 101649
02:00+6ю3391100 0.0 101633
05:00+8ююз5139056 0.3 1015459
08:00+9ююз6138719 0.0 1015593
11:00+11зюз1013698 0.4 10161464
14:00+13з9124453 0.1 10172336
17:00+13з9124295 0.1 10182346
20:00+10зюз510605 0.0 1019468
26 апреля, пн
пн2623:00+8зюз497058 0.0 1020218
02:00+7з2368100 0.0 102190
05:00+5зсз1160100 0.0 102210
08:00+7всв1159100 0.0 102359
11:00+10вюв4547100 0.0 1022703
14:00+8юв5773100 1.0 1021617
17:00+8всв61092100 5.3 1018390
20:00+8всв61294100 3.8 1015407
27 апреля, вт
вт2723:00+9в71587100 4.8 1009445
02:00+11вюв4982100 0.0 1005218
05:00+10ююз3470100 0.0 100349
08:00+8ссз4789100 0.0 1006249
11:00+10сз4578100 0.0 1007550
14:00+13зсз5667100 0.0 10081192
17:00+13сз6667100 0.1 10091253
20:00+10сз3572100 0.0 1011138